TimeEDT,TemperatureF,Dew PointF,Humidity,Sea Level PressureIn,VisibilityMPH,Wind Direction,Wind SpeedMPH,Gust SpeedMPH,PrecipitationIn,Events,Conditions,WindDirDegrees,DateUTC
12:16 AM,32.5,23.2,68,29.49,10.0,ENE,10.4,-,N/A,,Overcast,70,2013-03-25 04:16:00
12:36 AM,32.9,23.0,67,29.48,10.0,ENE,11.5,16.1,N/A,,Overcast,70,2013-03-25 04:36:00
12:57 AM,32.9,23.2,67,29.48,10.0,East,10.4,-,N/A,,Overcast,80,2013-03-25 04:57:00
1:16 AM,32.9,23.9,69,29.48,10.0,East,11.5,17.3,N/A,,Overcast,80,2013-03-25 05:16:00
1:36 AM,33.1,25.3,73,29.47,7.0,East,11.5,-,N/A,,Overcast,90,2013-03-25 05:36:00
1:57 AM,33.3,27.3,79,29.48,4.0,East,20.7,26.5,N/A,Snow,Light Snow,90,2013-03-25 05:57:00
2:16 AM,32.0,31.8,99,29.47,0.8,East,15.0,19.6,N/A,Snow,Snow,90,2013-03-25 06:16:00
2:36 AM,32.0,32.0,100,29.46,1.0,East,18.4,23.0,N/A,Snow,Snow,90,2013-03-25 06:36:00
2:56 AM,31.8,32.0,100,29.46,2.0,East,19.6,25.3,N/A,Snow,Light Snow,90,2013-03-25 06:56:00
3:16 AM,31.8,32.0,100,29.45,4.0,East,16.1,23.0,N/A,Snow,Light Snow,90,2013-03-25 07:16:00
3:56 AM,31.8,32.0,100,29.44,2.5,East,16.1,-,N/A,Snow,Light Snow,90,2013-03-25 07:56:00
4:16 AM,31.8,32.0,100,29.44,1.8,East,15.0,-,N/A,Snow,Light Snow,80,2013-03-25 08:16:00
4:36 AM,31.5,31.6,100,29.43,1.2,East,15.0,20.7,N/A,Snow,Light Snow,90,2013-03-25 08:36:00
4:56 AM,31.5,31.6,100,29.43,1.0,East,12.7,19.6,N/A,Snow,Light Snow,80,2013-03-25 08:56:00
5:16 AM,31.3,31.5,100,29.43,1.0,East,13.8,-,N/A,Snow,Light Snow,80,2013-03-25 09:16:00
5:36 AM,31.1,31.5,100,29.42,1.2,East,12.7,19.6,N/A,Snow,Light Snow,80,2013-03-25 09:36:00
5:56 AM,31.1,31.5,100,29.42,1.5,ENE,12.7,-,N/A,Snow,Light Snow,70,2013-03-25 09:56:00
6:16 AM,31.1,31.5,100,29.42,2.0,ENE,11.5,-,N/A,Snow,Light Snow,70,2013-03-25 10:16:00
6:36 AM,31.1,31.5,100,29.42,2.0,East,12.7,-,N/A,Snow,Light Snow,80,2013-03-25 10:36:00
6:56 AM,31.1,31.5,100,29.42,1.5,ENE,11.5,-,N/A,Snow,Light Snow,70,2013-03-25 10:56:00
7:16 AM,31.1,31.5,100,29.42,1.8,ENE,11.5,-,N/A,Snow,Light Snow,70,2013-03-25 11:16:00
7:36 AM,31.1,31.5,100,29.43,1.5,ENE,11.5,-,N/A,Snow,Light Snow,70,2013-03-25 11:36:00
7:56 AM,31.1,31.5,100,29.43,1.0,ENE,9.2,16.1,N/A,Snow,Light Snow,70,2013-03-25 11:56:00
8:16 AM,31.5,31.6,100,29.43,1.2,ENE,10.4,-,N/A,Snow,Light Snow,70,2013-03-25 12:16:00
8:36 AM,31.5,31.6,100,29.44,2.5,ENE,10.4,-,N/A,Snow,Light Snow,70,2013-03-25 12:36:00
8:56 AM,31.8,32.0,100,29.44,1.2,ENE,9.2,-,N/A,Snow,Light Snow,70,2013-03-25 12:56:00
9:16 AM,32.0,32.0,100,29.44,1.0,ENE,9.2,-,N/A,Snow,Light Snow,70,2013-03-25 13:16:00
9:36 AM,32.0,32.0,100,29.44,1.2,ENE,10.4,-,N/A,Snow,Light Snow,70,2013-03-25 13:36:00
9:56 AM,32.0,32.0,100,29.44,1.5,ENE,9.2,-,N/A,Snow,Light Snow,70,2013-03-25 13:56:00
10:16 AM,32.2,32.4,100,29.45,1.0,ENE,6.9,-,0.01,Snow,Light Snow,60,2013-03-25 14:16:00
10:36 AM,32.5,32.7,100,29.45,1.2,ENE,8.1,-,0.03,Snow,Light Snow,70,2013-03-25 14:36:00
10:56 AM,33.3,33.3,100,29.45,1.8,ENE,9.2,-,0.07,Snow,Light Snow,70,2013-03-25 14:56:00
11:16 AM,33.3,32.9,99,29.46,4.0,ENE,10.4,-,N/A,Snow,Light Snow,60,2013-03-25 15:16:00
11:36 AM,33.3,33.3,100,29.46,2.0,ENE,10.4,-,N/A,Snow,Light Snow,70,2013-03-25 15:36:00
11:56 AM,33.3,33.4,100,29.47,3.0,ENE,6.9,-,N/A,Snow,Light Snow,70,2013-03-25 15:56:00
12:16 PM,33.6,33.3,99,29.48,4.0,ENE,6.9,-,N/A,Snow,Light Snow,70,2013-03-25 16:16:00
12:36 PM,33.4,33.6,100,29.48,1.5,ENE,6.9,-,N/A,Snow,Light Snow,60,2013-03-25 16:36:00
12:57 PM,33.6,33.8,100,29.49,2.0,ENE,9.2,-,N/A,Snow,Light Snow,60,2013-03-25 16:57:00
1:16 PM,34.0,33.8,99,29.49,3.0,East,9.2,-,N/A,Snow,Light Snow,80,2013-03-25 17:16:00
1:36 PM,33.8,33.3,98,29.50,1.5,ENE,8.1,-,N/A,Snow,Light Snow,60,2013-03-25 17:36:00
1:57 PM,33.8,33.8,100,29.50,2.0,NE,8.1,-,N/A,Snow,Light Snow,50,2013-03-25 17:57:00
2:16 PM,34.2,33.4,97,29.51,4.0,NNE,6.9,-,N/A,Snow,Light Snow,30,2013-03-25 18:16:00
2:36 PM,34.0,33.8,99,29.51,4.0,NNE,6.9,-,N/A,Snow,Light Snow,30,2013-03-25 18:36:00
2:56 PM,34.2,33.3,97,29.51,2.5,NE,6.9,-,0.01,Snow,Light Snow,40,2013-03-25 18:56:00
3:16 PM,34.0,33.4,98,29.52,2.0,ENE,6.9,-,N/A,Snow,Light Snow,60,2013-03-25 19:16:00
3:36 PM,33.6,33.8,100,29.53,1.2,NE,4.6,-,0.01,Snow,Light Snow,40,2013-03-25 19:36:00
3:56 PM,34.0,34.2,100,29.53,5.0,NNE,5.8,-,0.01,,Overcast,30,2013-03-25 19:56:00
4:17 PM,34.3,34.5,100,29.54,4.0,NE,8.1,-,N/A,Rain,Light Rain,50,2013-03-25 20:17:00
4:36 PM,34.3,34.0,99,29.55,7.0,NNE,4.6,-,N/A,Rain,Light Rain,30,2013-03-25 20:36:00
4:56 PM,-9999,-9999,N/A,29.56,5.0,NNE,3.5,-,0.01,Rain,Light Rain,20,2013-03-25 20:56:00
5:16 PM,34.0,34.2,100,29.57,7.0,North,5.8,-,N/A,Rain,Light Rain,10,2013-03-25 21:16:00
5:36 PM,34.0,34.2,100,29.58,7.0,North,8.1,-,N/A,Rain,Light Rain,10,2013-03-25 21:36:00
5:56 PM,33.8,33.8,100,29.59,7.0,North,6.9,-,0.01,Rain,Light Rain,10,2013-03-25 21:56:00
6:16 PM,33.6,33.8,100,29.61,5.0,North,6.9,-,N/A,Snow,Light Snow,10,2013-03-25 22:16:00
6:36 PM,33.3,33.3,100,29.63,4.0,North,8.1,-,N/A,Snow,Light Snow,10,2013-03-25 22:36:00
6:57 PM,32.9,32.9,100,29.64,4.0,North,9.2,-,N/A,Snow,Light Snow,360,2013-03-25 22:57:00
7:16 PM,32.9,32.9,100,29.65,4.0,North,6.9,-,N/A,Snow,Light Snow,10,2013-03-25 23:16:00
7:36 PM,32.4,32.5,100,29.67,4.0,North,6.9,-,N/A,Snow,Light Snow,10,2013-03-25 23:36:00
7:57 PM,32.2,32.4,100,29.68,7.0,North,6.9,-,N/A,Snow,Light Snow,10,2013-03-25 23:57:00
8:16 PM,32.2,32.4,100,29.69,4.0,North,8.1,-,N/A,Snow,Light Snow,360,2013-03-26 00:16:00
8:36 PM,32.0,32.2,100,29.70,5.0,North,5.8,-,N/A,Snow,Light Snow,350,2013-03-26 00:36:00
8:56 PM,32.0,32.2,100,29.71,5.0,North,5.8,-,N/A,Snow,Light Snow,350,2013-03-26 00:56:00
9:16 PM,32.0,32.2,100,29.72,7.0,NNW,4.6,-,N/A,Snow,Light Snow,340,2013-03-26 01:16:00
9:36 PM,32.0,32.2,100,29.74,10.0,NNW,5.8,-,N/A,,Overcast,340,2013-03-26 01:36:00
9:56 PM,32.0,32.2,100,29.75,7.0,North,6.9,-,N/A,Snow,Light Snow,350,2013-03-26 01:56:00
10:16 PM,32.0,32.2,100,29.76,10.0,North,4.6,-,N/A,Snow,Light Snow,350,2013-03-26 02:16:00
10:36 PM,32.0,32.2,100,29.76,10.0,NNW,4.6,-,N/A,Snow,Light Snow,340,2013-03-26 02:36:00
10:56 PM,32.0,32.2,100,29.77,4.0,NNW,6.9,-,N/A,Snow,Light Snow,340,2013-03-26 02:56:00
11:16 PM,32.0,32.0,100,29.78,7.0,NNW,6.9,-,N/A,Snow,Light Snow,330,2013-03-26 03:16:00
11:36 PM,32.0,32.0,100,29.78,7.0,NW,5.8,-,N/A,Snow,Light Snow,320,2013-03-26 03:36:00
11:55 PM,32.0,32.0,100,29.79,10.0,NW,4.6,-,N/A,Snow,Light Snow,310,2013-03-26 03:55:00